Flag for Austria Weather past 2 weeks in Waidhofen an der Ybbs, Lower Austria, Austria

Now
30 °F

Chilly.


Feels Like: 30 °F
Forecast: 29 / 42 °F
Wind: 1 mph from West

Location: Amstetten

Current Time: Feb 27, 2015 at 1:34:19 AM

Latest Report: Feb 27, 2015 at 12:00 AM


Visibility: N/A

Pressure: 30.04 "Hg

Humidity: 90%

Dew point: 28 °F

Location of Waidhofen an der YbbsLocation

Historic Weather in Waidhofen an der Ybbs — Graph

°F

Waidhofen an der Ybbs temperature yesterday

Maximum temperature yesterday: 46 °F (at 2:00 PM)
Minimum temperature yesterday: 32 °F (at 11:00 PM)
Average temperature yesterday: 39 °F

Past Weeks' High & Low Weather Summary

 TemperatureHumidityPressure
High53 °F (Feb 16, 3:00 PM)100% (Feb 23, 7:00 AM)30.79 "Hg (Feb 23, 7:00 AM)
Low24 °F (Feb 20, 6:00 AM)46% (Feb 21, 4:00 PM)29.54 "Hg (Feb 21, 5:00 PM)
Average36 °F85%30.11 "Hg
* Reported Midnight between Feb 11 and Feb 12 — Midnight between Feb 26 and Feb 27, Waidhofen an der Ybbs, Weather by CustomWeather, © 2015

Note: Actual official high and low records may vary slightly from our data, if they occured in-between our weather recording intervals... More about our weather records

Advertising

Waidhofen an der Ybbs weather history for previous 24 hours

 ConditionsComfort  
Time TempWeatherWind HumidityBarometerVisibility
12:00 AM
Fri, Feb 27
30 °FChilly.1 mph90%30.04 "HgN/A
11:00 PM
Thu, Feb 26
32 °FChilly.No wind88%30.06 "HgN/A
10:00 PM34 °FChilly.1 mph85%30.09 "HgN/A
9:00 PM37 °FChilly.1 mph78%30.09 "HgN/A
8:00 PM40 °FChilly.1 mph77%30.09 "HgN/A
7:00 PM42 °FQuite cool.No wind66%30.10 "HgN/A
6:00 PM42 °FQuite cool.1 mph64%30.11 "HgN/A
5:00 PM44 °FQuite cool.2 mph54%30.11 "HgN/A
4:00 PM45 °FCool.1 mph53%30.11 "HgN/A
3:00 PM46 °FCool.1 mph51%30.14 "HgN/A
2:00 PM46 °FCool.2 mph51%30.15 "HgN/A
1:00 PM45 °FCool.2 mph51%30.17 "HgN/A
12:00 PM45 °FQuite cool.2 mph59%30.19 "HgN/A
10:00 AM40 °FChilly.1 mph82%30.23 "HgN/A
9:00 AM37 °FChilly.1 mph88%30.24 "HgN/A
8:00 AM36 °FChilly.1 mph91%30.24 "HgN/A
7:00 AM36 °FOvercast.1 mph93%30.23 "HgN/A
6:00 AM36 °FChilly.No wind91%30.22 "HgN/A
5:00 AM37 °FChilly.1 mph88%30.21 "HgN/A
3:00 AM37 °FChilly.2 mph89%30.20 "HgN/A
2:00 AM37 °FChilly.No wind89%30.20 "HgN/A
1:00 AM36 °FChilly.1 mph90%30.20 "HgN/A
Weather by CustomWeather, © 2015

See weather overviewHow to use our weather pages